QPF
0.01 0.01 0.01 0.01 0.02 0.01 0.01 0.01 0.01 0.01 0.01 0.02 0.02 0.02 0.03 0.04 0.05 0.07 0.07 0.08 0.07 0.05 0.05 0.06 0.06 0.06 0.08 0.09 0.07 0.05 0.05 0.05 0.04 0.04 0.03 0.03 0.04 0.04 0.05 0.05 0.05 0.05 0.04
0.01 0.01 0.01 0.01 0.01 0.02 0.01 0.01 0.01 0.01 0.01 0.02 0.02 0.03 0.04 0.04 0.06 0.06 0.06 0.07 0.08 0.04 0.04 0.05 0.05 0.07 0.07 0.07 0.05 0.04 0.05 0.06 0.05 0.04 0.02 0.03 0.04 0.03 0.05 0.06 0.07 0.07 0.07
0.01 0.01 0.01 0.01 0.01 0.01 0.01 0.01 0.00 0.01 0.01 0.01 0.02 0.03 0.04 0.05 0.05 0.04 0.05 0.04 0.05 0.05 0.04 0.03 0.03 0.04 0.04 0.04 0.04 0.03 0.04 0.05 0.05 0.03 0.03 0.04 0.04 0.04 0.05 0.05 0.06 0.07 0.08
0.01 0.02 0.02 0.02 0.01 0.01 0.01 0.01 0.00 0.01 0.02 0.02 0.03 0.04 0.04 0.05 0.04 0.04 0.05 0.04 0.04 0.03 0.04 0.05 0.04 0.04 0.04 0.03 0.03 0.03 0.05 0.05 0.04 0.04 0.03 0.03 0.03 0.05 0.07 0.07 0.07 0.07 0.07
0.02 0.02 0.03 0.03 0.03 0.02 0.02 0.02 0.01 0.01 0.02 0.02 0.07 0.10 0.06 0.06 0.06 0.05 0.06 0.06 0.05 0.05 0.04 0.07 0.06 0.04 0.03 0.02 0.02 0.03 0.04 0.03 0.03 0.04 0.03 0.03 0.03 0.03 0.04 0.06 0.05 0.05 0.05
0.03 0.03 0.03 0.04 0.05 0.04 0.03 0.03 0.04 0.04 0.03 0.04 0.05 0.08 0.08 0.06 0.10 0.08 0.06 0.05 0.06 0.06 0.05 0.05 0.04 0.03 0.03 0.03 0.03 0.03 0.02 0.02 0.02 0.03 0.02 0.02 0.02 0.04 0.04 0.04 0.05 0.05 0.06
0.03 0.04 0.06 0.07 0.06 0.05 0.05 0.05 0.05 0.06 0.06 0.06 0.06 0.06 0.05 0.06 0.09 0.10 0.08 0.06 0.06 0.07 0.07 0.05 0.04 0.03 0.03 0.03 0.03 0.02 0.02 0.01 0.01 0.02 0.02 0.02 0.02 0.04 0.05 0.05 0.05 0.06 0.05
0.02 0.02 0.05 0.08 0.09 0.07 0.06 0.07 0.08 0.09 0.08 0.08 0.06 0.05 0.04 0.05 0.06 0.07 0.07 0.07 0.07 0.08 0.08 0.07 0.06 0.04 0.04 0.03 0.03 0.02 0.02 0.01 0.02 0.02 0.02 0.01 0.01 0.02 0.04 0.05 0.05 0.04 0.04
0.02 0.02 0.02 0.02 0.03 0.03 0.02 0.03 0.04 0.06 0.06 0.06 0.07 0.07 0.05 0.05 0.06 0.05 0.05 0.05 0.07 0.07 0.08 0.07 0.06 0.06 0.04 0.04 0.03 0.02 0.02 0.02 0.01 0.02 0.03 0.03 0.03 0.03 0.04 0.04 0.04 0.04 0.03
0.01 0.01 0.01 0.01 0.01 0.01 0.01 0.01 0.01 0.02 0.02 0.02 0.03 0.04 0.04 0.05 0.05 0.05 0.04 0.05 0.06 0.07 0.07 0.08 0.08 0.07 0.07 0.05 0.03 0.02 0.02 0.02 0.01 0.01 0.03 0.05 0.04 0.03 0.03 0.03 0.03 0.02 0.02
0.01 0.01 0.01 0.01 0.01 0.01 0.01 0.01 0.01 0.01 0.01 0.01 0.02 0.02 0.03 0.03 0.02 0.02 0.02 0.03 0.06 0.08 0.09 0.08 0.08 0.09 0.08 0.06 0.04 0.03 0.03 0.04 0.04 0.03 0.02 0.03 0.04 0.05 0.04 0.04 0.04 0.04 0.03
0.01 0.01 0.01 0.01 0.02 0.02 0.02 0.01 0.01 0.01 0.01 0.01 0.01 0.01 0.01 0.02 0.02 0.02 0.02 0.02 0.03 0.05 0.09 0.12 0.11 0.09 0.07 0.06 0.05 0.04 0.04 0.06 0.08 0.06 0.03 0.03 0.03 0.04 0.05 0.05 0.04 0.05 0.05
0.01 0.01 0.01 0.02 0.04 0.04 0.04 0.03 0.02 0.01 0.02 0.01 0.01 0.01 0.01 0.01 0.01 0.02 0.03 0.03 0.05 0.05 0.05 0.05 0.05 0.05 0.05 0.05 0.05 0.06 0.08 0.09 0.09 0.07 0.06 0.05 0.06 0.06 0.06 0.05 0.04 0.05 0.07
0.02 0.02 0.02 0.04 0.04 0.04 0.03 0.02 0.02 0.02 0.02 0.02 0.02 0.02 0.02 0.03 0.02 0.02 0.03 0.04 0.05 0.06 0.07 0.06 0.04 0.04 0.04 0.06 0.08 0.10 0.09 0.08 0.06 0.07 0.07 0.07 0.07 0.07 0.07 0.06 0.06 0.06 0.06
0.03 0.04 0.04 0.04 0.04 0.04 0.03 0.02 0.02 0.02 0.03 0.03 0.03 0.04 0.04 0.04 0.04 0.03 0.03 0.04 0.03 0.03 0.05 0.06 0.04 0.03 0.04 0.06 0.06 0.05 0.05 0.06 0.06 0.06 0.07 0.08 0.07 0.06 0.06 0.06 0.06 0.06 0.05
0.04 0.04 0.04 0.04 0.04 0.04 0.04 0.04 0.04 0.04 0.04 0.04 0.05 0.06 0.07 0.06 0.04 0.04 0.03 0.03 0.03 0.03 0.02 0.03 0.03 0.03 0.03 0.03 0.03 0.03 0.05 0.07 0.08 0.08 0.07 0.08 0.09 0.08 0.07 0.06 0.06 0.06 0.06
0.06 0.05 0.04 0.04 0.03 0.04 0.04 0.05 0.05 0.04 0.04 0.04 0.04 0.05 0.06 0.04 0.03 0.03 0.02 0.01 0.01 0.01 0.01 0.01 0.01 0.01 0.02 0.02 0.03 0.03 0.04 0.05 0.06 0.07 0.07 0.07 0.07 0.07 0.08 0.08 0.08 0.08 0.07
0.05 0.05 0.05 0.04 0.04 0.03 0.03 0.03 0.03 0.03 0.03 0.03 0.04 0.04 0.05 0.04 0.03 0.02 0.01 0.01 0.01 0.02 0.02 0.02 0.02 0.01 0.01 0.01 0.01 0.01 0.01 0.02 0.02 0.04 0.07 0.09 0.09 0.09 0.10 0.10 0.10 0.09 0.08
0.04 0.04 0.05 0.05 0.05 0.05 0.05 0.05 0.05 0.05 0.03 0.03 0.03 0.03 0.03 0.03 0.03 0.02 0.01 0.01 0.01 0.02 0.02 0.02 0.02 0.01 0.01 0.01 0.01 0.01 0.01 0.01 0.01 0.02 0.04 0.09 0.13 0.12 0.09 0.08 0.08 0.07 0.06
0.04 0.04 0.06 0.07 0.07 0.05 0.05 0.06 0.06 0.05 0.04 0.03 0.03 0.02 0.02 0.02 0.02 0.01 0.01 0.02 0.03 0.03 0.02 0.02 0.02 0.01 0.01 0.01 0.00 0.00 0.01 0.01 0.01 0.01 0.02 0.04 0.07 0.10 0.10 0.08 0.06 0.06 0.06
0.03 0.03 0.05 0.06 0.10 0.11 0.11 0.09 0.09 0.08 0.07 0.05 0.03 0.03 0.02 0.02 0.01 0.01 0.02 0.03 0.04 0.04 0.03 0.02 0.02 0.01 0.01 0.01 0.01 0.01 0.01 0.01 0.01 0.02 0.02 0.02 0.04 0.06 0.08 0.09 0.08 0.07 0.06
0.04 0.03 0.03 0.03 0.05 0.11 0.15 0.15 0.12 0.11 0.10 0.09 0.06 0.03 0.02 0.02 0.02 0.02 0.02 0.03 0.04 0.04 0.04 0.03 0.02 0.01 0.01 0.01 0.01 0.01 0.01 0.01 0.01 0.02 0.02 0.03 0.04 0.04 0.05 0.05 0.06 0.08 0.08
0.04 0.02 0.03 0.04 0.05 0.06 0.07 0.10 0.11 0.09 0.07 0.06 0.05 0.03 0.03 0.02 0.02 0.02 0.03 0.03 0.02 0.02 0.02 0.03 0.02 0.02 0.01 0.01 0.01 0.01 0.01 0.01 0.01 0.01 0.02 0.03 0.04 0.04 0.04 0.04 0.04 0.08 0.11
0.04 0.04 0.04 0.05 0.08 0.07 0.06 0.06 0.05 0.04 0.03 0.03 0.03 0.03 0.03 0.02 0.03 0.03 0.02 0.02 0.01 0.01 0.01 0.01 0.01 0.02 0.02 0.02 0.02 0.01 0.01 0.01 0.01 0.01 0.01 0.02 0.03 0.03 0.03 0.04 0.05 0.06 0.08
0.04 0.05 0.04 0.04 0.06 0.07 0.06 0.05 0.05 0.04 0.03 0.02 0.02 0.03 0.02 0.02 0.02 0.02 0.02 0.01 0.01 0.01 0.01 0.01 0.01 0.01 0.01 0.01 0.01 0.01 0.02 0.02 0.02 0.01 0.01 0.01 0.01 0.01 0.02 0.02 0.05 0.06 0.05
0.04 0.05 0.05 0.05 0.05 0.04 0.04 0.05 0.04 0.03 0.03 0.03 0.02 0.02 0.01 0.01 0.01 0.01 0.01 0.01 0.01 0.01 0.00 0.01 0.01 0.01 0.01 0.01 0.01 0.01 0.01 0.01 0.01 0.02 0.02 0.02 0.02 0.02 0.02 0.01 0.03 0.05 0.05
MSLP
1008.66 1009.38 1010.14 1010.89 1011.56 1012.12 1012.58 1012.93 1013.22 1013.48 1013.75 1014.05 1014.39 1014.75 1015.12 1015.46 1015.74 1015.96 1016.09 1016.15 1016.15 1016.11 1016.04 1015.98 1015.94 1015.93 1015.94 1016.01 1016.10 1016.22 1016.34 1016.47 1016.57 1016.63 1016.62 1016.53 1016.34 1016.07 1015.73 1015.34 1014.94 1014.55 1014.20
1008.46 1009.21 1009.99 1010.75 1011.46 1012.08 1012.60 1013.04 1013.41 1013.75 1014.09 1014.44 1014.81 1015.19 1015.56 1015.91 1016.20 1016.43 1016.59 1016.69 1016.74 1016.74 1016.72 1016.69 1016.66 1016.63 1016.63 1016.65 1016.69 1016.75 1016.83 1016.91 1016.97 1017.00 1016.97 1016.87 1016.68 1016.40 1016.05 1015.64 1015.21 1014.78 1014.38
1008.41 1009.17 1009.96 1010.74 1011.46 1012.11 1012.68 1013.18 1013.62 1014.03 1014.43 1014.83 1015.22 1015.61 1015.98 1016.32 1016.62 1016.86 1017.04 1017.18 1017.27 1017.33 1017.36 1017.38 1017.38 1017.38 1017.37 1017.36 1017.37 1017.38 1017.40 1017.43 1017.45 1017.44 1017.38 1017.26 1017.06 1016.77 1016.41 1015.99 1015.54 1015.08 1014.64
1008.47 1009.25 1010.05 1010.82 1011.55 1012.21 1012.81 1013.35 1013.85 1014.32 1014.77 1015.20 1015.62 1016.02 1016.38 1016.71 1017.00 1017.24 1017.43 1017.60 1017.73 1017.85 1017.94 1018.01 1018.05 1018.08 1018.08 1018.07 1018.05 1018.02 1018.00 1017.97 1017.94 1017.89 1017.80 1017.66 1017.44 1017.16 1016.80 1016.38 1015.93 1015.46 1015.01
1008.61 1009.41 1010.21 1010.98 1011.70 1012.37 1012.99 1013.57 1014.11 1014.62 1015.11 1015.58 1016.02 1016.42 1016.78 1017.09 1017.36 1017.59 1017.78 1017.96 1018.12 1018.27 1018.41 1018.53 1018.62 1018.68 1018.70 1018.69 1018.65 1018.59 1018.52 1018.44 1018.36 1018.27 1018.15 1018.00 1017.79 1017.52 1017.18 1016.79 1016.36 1015.91 1015.46
1008.79 1009.61 1010.42 1011.19 1011.91 1012.58 1013.21 1013.81 1014.39 1014.94 1015.48 1015.98 1016.43 1016.84 1017.19 1017.48 1017.72 1017.93 1018.11 1018.28 1018.45 1018.62 1018.78 1018.93 1019.05 1019.14 1019.17 1019.16 1019.10 1019.01 1018.91 1018.79 1018.67 1018.54 1018.41 1018.25 1018.05 1017.81 1017.52 1017.17 1016.79 1016.38 1015.96
1008.97 1009.83 1010.65 1011.42 1012.14 1012.82 1013.46 1014.08 1014.69 1015.28 1015.85 1016.38 1016.86 1017.26 1017.60 1017.87 1018.09 1018.26 1018.42 1018.57 1018.73 1018.89 1019.06 1019.22 1019.35 1019.44 1019.48 1019.46 1019.39 1019.28 1019.14 1018.99 1018.85 1018.70 1018.56 1018.40 1018.23 1018.03 1017.79 1017.51 1017.19 1016.84 1016.47
1009.14 1010.03 1010.87 1011.65 1012.38 1013.06 1013.72 1014.36 1015.00 1015.62 1016.22 1016.77 1017.26 1017.67 1018.01 1018.26 1018.45 1018.59 1018.71 1018.83 1018.97 1019.11 1019.27 1019.42 1019.54 1019.63 1019.66 1019.63 1019.54 1019.41 1019.25 1019.09 1018.92 1018.77 1018.63 1018.50 1018.36 1018.20 1018.02 1017.80 1017.55 1017.26 1016.94
1009.27 1010.19 1011.06 1011.86 1012.59 1013.29 1013.96 1014.62 1015.27 1015.92 1016.54 1017.11 1017.62 1018.03 1018.36 1018.60 1018.77 1018.89 1018.98 1019.07 1019.17 1019.29 1019.42 1019.55 1019.66 1019.72 1019.74 1019.70 1019.60 1019.46 1019.29 1019.12 1018.96 1018.82 1018.69 1018.58 1018.48 1018.36 1018.23 1018.06 1017.86 1017.61 1017.33
1009.37 1010.32 1011.20 1012.01 1012.76 1013.46 1014.14 1014.82 1015.49 1016.15 1016.78 1017.37 1017.88 1018.30 1018.63 1018.86 1019.02 1019.12 1019.19 1019.26 1019.34 1019.43 1019.53 1019.63 1019.72 1019.77 1019.77 1019.72 1019.62 1019.48 1019.32 1019.17 1019.02 1018.89 1018.79 1018.71 1018.64 1018.55 1018.45 1018.31 1018.13 1017.90 1017.63
1009.44 1010.40 1011.29 1012.10 1012.86 1013.57 1014.26 1014.94 1015.62 1016.29 1016.92 1017.51 1018.02 1018.45 1018.77 1019.00 1019.16 1019.26 1019.33 1019.38 1019.44 1019.52 1019.60 1019.68 1019.74 1019.78 1019.77 1019.72 1019.63 1019.51 1019.38 1019.25 1019.13 1019.04 1018.97 1018.91 1018.86 1018.79 1018.69 1018.55 1018.37 1018.13 1017.84
1009.48 1010.42 1011.30 1012.11 1012.86 1013.58 1014.28 1014.97 1015.65 1016.31 1016.95 1017.53 1018.04 1018.46 1018.78 1019.02 1019.18 1019.29 1019.36 1019.42 1019.47 1019.54 1019.61 1019.68 1019.73 1019.76 1019.75 1019.71 1019.64 1019.55 1019.45 1019.37 1019.29 1019.24 1019.20 1019.17 1019.12 1019.05 1018.94 1018.78 1018.56 1018.28 1017.95
1009.48 1010.38 1011.23 1012.03 1012.78 1013.50 1014.21 1014.90 1015.58 1016.25 1016.88 1017.45 1017.95 1018.36 1018.68 1018.92 1019.09 1019.21 1019.29 1019.36 1019.42 1019.49 1019.56 1019.62 1019.67 1019.70 1019.70 1019.67 1019.63 1019.58 1019.53 1019.50 1019.47 1019.46 1019.46 1019.45 1019.41 1019.32 1019.18 1018.97 1018.70 1018.36 1017.96
1009.43 1010.27 1011.08 1011.85 1012.60 1013.33 1014.05 1014.76 1015.45 1016.11 1016.73 1017.30 1017.78 1018.19 1018.51 1018.75 1018.93 1019.05 1019.15 1019.23 1019.31 1019.38 1019.45 1019.51 1019.56 1019.59 1019.60 1019.60 1019.58 1019.58 1019.58 1019.60 1019.63 1019.66 1019.70 1019.70 1019.66 1019.55 1019.37 1019.11 1018.77 1018.35 1017.88
1009.32 1010.08 1010.84 1011.59 1012.34 1013.09 1013.83 1014.56 1015.26 1015.94 1016.56 1017.11 1017.59 1017.98 1018.30 1018.54 1018.72 1018.86 1018.97 1019.06 1019.14 1019.22 1019.29 1019.35 1019.40 1019.43 1019.46 1019.47 1019.49 1019.53 1019.58 1019.64 1019.72 1019.80 1019.86 1019.88 1019.84 1019.71 1019.50 1019.18 1018.77 1018.28 1017.73
1009.11 1009.80 1010.51 1011.25 1012.01 1012.78 1013.56 1014.32 1015.06 1015.75 1016.38 1016.93 1017.40 1017.79 1018.09 1018.33 1018.51 1018.65 1018.77 1018.87 1018.96 1019.04 1019.11 1019.17 1019.22 1019.25 1019.29 1019.32 1019.37 1019.43 1019.52 1019.64 1019.76 1019.87 1019.96 1019.99 1019.95 1019.80 1019.55 1019.19 1018.73 1018.18 1017.56
1008.81 1009.42 1010.10 1010.84 1011.62 1012.43 1013.25 1014.06 1014.83 1015.55 1016.20 1016.76 1017.22 1017.60 1017.90 1018.13 1018.31 1018.46 1018.58 1018.69 1018.78 1018.87 1018.94 1019.00 1019.05 1019.09 1019.13 1019.18 1019.25 1019.34 1019.46 1019.61 1019.76 1019.90 1020.01 1020.05 1020.00 1019.84 1019.57 1019.17 1018.66 1018.07 1017.41
1008.39 1008.96 1009.62 1010.37 1011.18 1012.04 1012.91 1013.77 1014.58 1015.33 1016.00 1016.57 1017.04 1017.41 1017.71 1017.94 1018.12 1018.27 1018.40 1018.52 1018.62 1018.72 1018.80 1018.87 1018.93 1018.98 1019.03 1019.10 1019.18 1019.30 1019.44 1019.60 1019.77 1019.93 1020.05 1020.09 1020.04 1019.88 1019.58 1019.17 1018.64 1018.02 1017.32
1007.88 1008.43 1009.10 1009.86 1010.71 1011.61 1012.53 1013.43 1014.28 1015.06 1015.74 1016.32 1016.79 1017.17 1017.47 1017.70 1017.89 1018.06 1018.21 1018.34 1018.47 1018.59 1018.70 1018.79 1018.88 1018.95 1019.02 1019.11 1019.21 1019.34 1019.49 1019.66 1019.84 1020.00 1020.12 1020.16 1020.10 1019.93 1019.64 1019.21 1018.68 1018.05 1017.34
1007.31 1007.86 1008.54 1009.33 1010.21 1011.14 1012.10 1013.03 1013.90 1014.70 1015.39 1015.97 1016.45 1016.83 1017.14 1017.38 1017.60 1017.78 1017.96 1018.14 1018.31 1018.47 1018.63 1018.77 1018.89 1019.00 1019.11 1019.22 1019.34 1019.48 1019.64 1019.81 1019.98 1020.13 1020.23 1020.26 1020.20 1020.03 1019.73 1019.32 1018.79 1018.18 1017.48
1006.72 1007.28 1007.98 1008.79 1009.69 1010.64 1011.61 1012.55 1013.43 1014.22 1014.91 1015.49 1015.97 1016.36 1016.68 1016.95 1017.19 1017.42 1017.66 1017.89 1018.12 1018.35 1018.56 1018.77 1018.95 1019.11 1019.27 1019.41 1019.55 1019.71 1019.86 1020.02 1020.18 1020.31 1020.39 1020.40 1020.33 1020.15 1019.87 1019.47 1018.97 1018.39 1017.73
1006.13 1006.72 1007.43 1008.26 1009.16 1010.11 1011.06 1011.99 1012.85 1013.62 1014.30 1014.87 1015.35 1015.75 1016.09 1016.39 1016.68 1016.97 1017.26 1017.57 1017.88 1018.19 1018.49 1018.77 1019.02 1019.26 1019.46 1019.65 1019.82 1019.98 1020.13 1020.27 1020.40 1020.50 1020.55 1020.54 1020.45 1020.27 1020.00 1019.63 1019.18 1018.64 1018.05
1005.55 1006.18 1006.90 1007.73 1008.62 1009.54 1010.47 1011.36 1012.18 1012.93 1013.58 1014.14 1014.61 1015.02 1015.39 1015.73 1016.08 1016.43 1016.80 1017.19 1017.58 1017.99 1018.38 1018.74 1019.08 1019.38 1019.65 1019.87 1020.07 1020.24 1020.38 1020.50 1020.60 1020.66 1020.67 1020.63 1020.52 1020.34 1020.09 1019.76 1019.36 1018.89 1018.38
1004.99 1005.64 1006.37 1007.19 1008.05 1008.94 1009.82 1010.67 1011.45 1012.16 1012.78 1013.33 1013.81 1014.24 1014.64 1015.03 1015.43 1015.86 1016.30 1016.78 1017.26 1017.75 1018.23 1018.69 1019.10 1019.47 1019.79 1020.06 1020.28 1020.45 1020.58 1020.68 1020.74 1020.75 1020.73 1020.66 1020.53 1020.35 1020.12 1019.83 1019.49 1019.10 1018.68
1004.41 1005.07 1005.81 1006.61 1007.45 1008.30 1009.14 1009.94 1010.69 1011.37 1011.97 1012.52 1013.01 1013.46 1013.91 1014.35 1014.82 1015.31 1015.83 1016.38 1016.95 1017.52 1018.07 1018.60 1019.08 1019.51 1019.87 1020.18 1020.41 1020.59 1020.71 1020.79 1020.81 1020.79 1020.73 1020.63 1020.48 1020.30 1020.09 1019.84 1019.56 1019.25 1018.92
1003.76 1004.44 1005.18 1005.98 1006.80 1007.62 1008.43 1009.20 1009.93 1010.59 1011.20 1011.75 1012.27 1012.77 1013.26 1013.76 1014.29 1014.84 1015.43 1016.04 1016.67 1017.30 1017.91 1018.50 1019.03 1019.50 1019.91 1020.24 1020.50 1020.68 1020.80 1020.85 1020.85 1020.80 1020.70 1020.58 1020.42 1020.23 1020.03 1019.81 1019.58 1019.34 1019.10
Thickness
5791 5789 5786 5783 5781 5778 5775 5773 5771 5769 5767 5764 5762 5759 5757 5755 5754 5752 5749 5748 5745 5743 5742 5740 5738 5738 5736 5735 5733 5731 5728 5725 5719 5722 5724 5725 5724 5723 5722 5721 5720 5718 5716
5790 5787 5784 5781 5778 5775 5772 5771 5769 5767 5765 5763 5760 5757 5755 5753 5751 5749 5746 5745 5742 5740 5738 5736 5734 5734 5731 5730 5728 5726 5724 5723 5718 5715 5717 5718 5718 5717 5716 5715 5715 5713 5711
5787 5783 5780 5777 5774 5771 5769 5768 5766 5764 5762 5760 5757 5754 5752 5750 5748 5746 5744 5742 5740 5737 5735 5732 5731 5728 5726 5724 5723 5722 5720 5719 5716 5712 5711 5712 5712 5711 5709 5708 5708 5706 5706
5783 5779 5775 5773 5771 5769 5766 5764 5762 5761 5758 5756 5753 5751 5748 5746 5745 5743 5740 5738 5735 5734 5732 5729 5727 5724 5722 5720 5719 5717 5715 5712 5710 5707 5706 5705 5704 5704 5702 5699 5697 5698 5697
5779 5775 5772 5771 5768 5765 5762 5760 5758 5756 5754 5751 5749 5746 5744 5742 5741 5739 5736 5734 5731 5729 5727 5725 5723 5722 5720 5718 5716 5713 5710 5706 5703 5700 5698 5696 5696 5694 5692 5692 5689 5689 5689
5775 5771 5770 5767 5764 5760 5758 5755 5753 5751 5749 5746 5744 5741 5739 5738 5737 5735 5732 5729 5726 5724 5722 5720 5719 5717 5715 5714 5712 5710 5707 5703 5698 5694 5692 5690 5689 5689 5687 5686 5682 5680 5678
5771 5768 5765 5763 5759 5756 5754 5750 5747 5746 5744 5741 5739 5736 5733 5732 5732 5730 5728 5725 5721 5719 5717 5715 5714 5713 5710 5707 5706 5704 5702 5700 5697 5692 5688 5687 5685 5685 5682 5679 5677 5674 5673
5766 5763 5761 5759 5755 5752 5749 5745 5743 5741 5738 5735 5733 5731 5728 5727 5726 5725 5723 5720 5717 5714 5712 5710 5707 5705 5704 5700 5699 5697 5695 5694 5692 5689 5686 5685 5684 5682 5679 5676 5672 5670 5669
5760 5758 5757 5754 5751 5748 5744 5741 5739 5736 5733 5730 5728 5726 5723 5721 5720 5718 5716 5714 5710 5709 5707 5705 5702 5699 5697 5694 5690 5688 5687 5687 5687 5685 5683 5681 5679 5676 5673 5669 5665 5661 5659
5756 5755 5753 5750 5747 5743 5740 5737 5735 5732 5728 5726 5723 5720 5718 5715 5714 5712 5710 5707 5703 5701 5700 5698 5695 5692 5689 5686 5682 5679 5677 5677 5677 5675 5674 5672 5670 5668 5666 5663 5660 5655 5652
5753 5751 5748 5745 5742 5740 5736 5733 5730 5727 5723 5719 5716 5713 5711 5709 5707 5705 5702 5699 5695 5693 5691 5689 5687 5685 5681 5678 5675 5672 5671 5669 5667 5665 5663 5661 5660 5658 5657 5655 5653 5650 5647
5747 5744 5742 5740 5737 5735 5730 5727 5723 5720 5716 5712 5709 5705 5703 5701 5699 5697 5694 5691 5689 5685 5682 5681 5680 5677 5674 5671 5667 5665 5663 5661 5658 5655 5653 5651 5650 5649 5648 5647 5646 5644 5643
5739 5736 5735 5732 5730 5727 5723 5720 5716 5713 5709 5705 5701 5697 5694 5692 5690 5689 5686 5683 5681 5677 5674 5673 5671 5669 5666 5662 5660 5658 5655 5651 5649 5646 5644 5643 5642 5641 5640 5639 5637 5636 5635
5731 5729 5727 5724 5720 5718 5716 5713 5709 5705 5701 5697 5693 5690 5686 5683 5680 5678 5676 5673 5671 5668 5665 5663 5661 5660 5657 5654 5652 5649 5646 5643 5640 5638 5637 5636 5634 5632 5630 5629 5627 5625 5624
5722 5720 5718 5715 5712 5709 5706 5704 5702 5700 5697 5692 5689 5685 5680 5676 5674 5671 5667 5665 5663 5660 5656 5653 5650 5648 5647 5645 5643 5641 5638 5636 5633 5631 5629 5626 5624 5622 5621 5619 5617 5615 5613
5714 5711 5709 5706 5703 5700 5696 5693 5692 5690 5688 5686 5683 5679 5676 5672 5667 5664 5660 5657 5654 5651 5647 5644 5642 5640 5637 5636 5633 5631 5630 5628 5626 5623 5620 5618 5615 5613 5611 5610 5608 5606 5604
5706 5704 5702 5699 5696 5692 5689 5685 5681 5679 5678 5676 5674 5671 5668 5663 5659 5656 5653 5649 5646 5643 5639 5636 5633 5631 5629 5627 5625 5623 5622 5620 5617 5614 5612 5609 5607 5605 5603 5601 5599 5597 5595
5698 5697 5695 5692 5689 5686 5683 5680 5676 5672 5668 5665 5663 5660 5657 5653 5650 5646 5643 5640 5637 5634 5631 5628 5626 5623 5621 5619 5617 5615 5613 5610 5608 5605 5603 5601 5599 5597 5595 5593 5590 5589 5587
5689 5688 5687 5684 5682 5679 5676 5673 5669 5665 5661 5657 5653 5650 5647 5643 5639 5636 5634 5631 5628 5626 5623 5621 5619 5616 5614 5612 5609 5607 5604 5601 5599 5596 5593 5592 5590 5588 5586 5584 5582 5581 5578
5682 5682 5680 5676 5673 5670 5668 5665 5661 5657 5653 5649 5645 5642 5638 5634 5630 5627 5625 5623 5620 5618 5616 5614 5611 5609 5606 5604 5601 5598 5595 5592 5589 5586 5584 5582 5581 5578 5576 5575 5573 5572 5570
5673 5672 5671 5668 5665 5663 5660 5657 5654 5650 5645 5641 5638 5635 5632 5628 5625 5621 5619 5616 5614 5612 5610 5607 5604 5601 5598 5595 5592 5589 5586 5583 5581 5578 5575 5573 5571 5569 5567 5566 5564 5563 5562
5665 5663 5662 5659 5657 5655 5652 5649 5646 5642 5639 5634 5631 5627 5623 5620 5618 5615 5613 5611 5609 5606 5604 5601 5597 5594 5591 5587 5584 5580 5577 5574 5572 5570 5567 5564 5562 5560 5558 5557 5555 5554 5553
5656 5655 5654 5651 5649 5646 5643 5641 5637 5634 5631 5628 5625 5620 5617 5614 5611 5609 5606 5604 5601 5599 5596 5593 5590 5586 5583 5580 5577 5573 5568 5565 5563 5561 5558 5556 5554 5552 5550 5548 5546 5545 5544
5649 5648 5646 5643 5640 5638 5635 5632 5629 5627 5624 5621 5618 5615 5611 5608 5605 5603 5600 5597 5594 5592 5589 5585 5582 5579 5575 5572 5568 5565 5561 5558 5556 5553 5551 5548 5546 5544 5542 5539 5538 5537 5535
5641 5639 5637 5635 5632 5630 5627 5624 5622 5620 5617 5615 5611 5608 5604 5602 5599 5596 5593 5590 5587 5583 5580 5577 5574 5571 5567 5564 5560 5556 5553 5550 5548 5545 5543 5540 5538 5536 5534 5532 5529 5528 5526
5632 5630 5628 5626 5624 5622 5620 5617 5615 5612 5610 5607 5604 5600 5597 5594 5591 5588 5585 5582 5579 5575 5572 5569 5565 5562 5559 5555 5552 5549 5545 5542 5539 5537 5535 5532 5530 5527 5525 5523 5522 5520 5518